Location: Unspecified
(0.0000°N, 0.0000°E)
Time: 19:05:46
(UTC+00:00)

Hubble Space Telescope - Pass Details

Date: 25 February 2021
Orbit: 536 x 539 km, 28.5° (Epoch: 25 February)

Event Time Altitude Azimuth Distance (km) Brightness Sun altitude
Rises 20:04:26 0° 258° (WSW) 2,667 5.6 -27.5°
Reaches altitude 10° 20:06:54 10° 269° (W) 1,776 4.4 -28.1°
Enters shadow 20:09:27 26° 302° (WNW) 1,072 2.7 -28.7°
